This is the latest recevied weather packets stored in our database for station/object KD9JB-1. If no packets are shown the sender has not sent any weather packets the latest 10 day(s).
| Time | Temp. | Humidity | Pressure | Rain* | Wind** | Luminosity | Snow |
|---|---|---|---|---|---|---|---|
| 1777595207 | 14.44° C | 54% | 1015.6 hPa | 0 mm | - | - | - |
| 1777594908 | 15° C | 51% | 1015.6 hPa | 0 mm | - | - | - |
| 1777594608 | 15° C | 46% | 1015.6 hPa | 0 mm | - | - | - |
| 1777594307 | 15.56° C | 43% | 1015.5 hPa | 0 mm | - | - | - |
| 1777594007 | 16.11° C | 43% | 1015.6 hPa | 0 mm | - | - | - |
| 1777593707 | 16.11° C | 43% | 1015.6 hPa | 0 mm | - | - | - |
| 1777593407 | 16.11° C | 42% | 1015.6 hPa | 0 mm | - | - | - |
| 1777593107 | 16.11° C | 41% | 1015.6 hPa | 0 mm | - | - | - |
| 1777592807 | 16.11° C | 42% | 1015.6 hPa | 0 mm | - | - | - |
| 1777592507 | 16.67° C | 40% | 1015.5 hPa | 0 mm | - | - | - |
| 1777592207 | 16.67° C | 40% | 1015.5 hPa | 0 mm | - | - | - |
| 1777591908 | 17.22° C | 39% | 1015.6 hPa | 0 mm | - | - | - |
| 1777591607 | 17.22° C | 40% | 1015.6 hPa | 0 mm | - | - | - |
| 1777591307 | 16.67° C | 39% | 1015.6 hPa | 0 mm | - | - | - |
| 1777591007 | 17.22° C | 40% | 1015.7 hPa | 0 mm | - | - | - |
| 1777590707 | 17.22° C | 39% | 1015.6 hPa | 0 mm | - | - | - |
| 1777590407 | 17.78° C | 38% | 1015.7 hPa | 0 mm | - | - | - |
| 1777590107 | 17.78° C | 38% | 1015.6 hPa | 0 mm | - | - | - |
| 1777589807 | 17.78° C | 38% | 1015.7 hPa | 0 mm | - | - | - |
| 1777589507 | 17.78° C | 37% | 1015.7 hPa | 0 mm | - | - | - |
| 1777589207 | 17.78° C | 39% | 1015.7 hPa | 0 mm | - | - | - |
| 1777588907 | 17.78° C | 39% | 1015.8 hPa | 0 mm | - | - | - |
| 1777588607 | 17.78° C | 40% | 1015.8 hPa | 0 mm | - | - | - |
| 1777588307 | 18.33° C | 39% | 1015.8 hPa | 0 mm | - | - | - |
| 1777588007 | 17.78° C | 39% | 1015.8 hPa | 0 mm | - | - | - |
* Rain latest hour (hover to see other rain measurements)
** Current wind speed in m/s (hover to see current wind gust speed)